Weather History for KLCI - August, 2012

Change the Weather History Date:

Wednesday, August 1, 2012

  Actual Average Record
Temperature  
Mean Temperature 73 °F -  
Max Temperature 80 °F 78 °F 93 °F (2006)
Min Temperature 66 °F 59 °F 47 °F (1987)
Cooling Degree Days 8    
Growing Degree Days 23 (Base 50)    
Moisture  
Dew Point 63 °F    
Average Humidity 73    
Maximum Humidity 88    
Minimum Humidity 54    
Precipitation  
Precipitation 0.00 in - - ()
Sea Level Pressure  
Sea Level Pressure 29.86 in    
Wind  
Wind Speed 5 mph (SW)    
Max Wind Speed 12 mph    
Max Gust Speed 16 mph    
Visibility 10 miles    
Events      
Averages and records for this station are not official NWS values.
T = Trace of Precipitation, MM = Missing Value Source: NWS Daily Summary

Daily Weather History Graph

Daily Weather History Graph

Search for Another Location

Airport or City:

Trip Planner

Search our weather history database for the weather conditions in past years. The results will help you decide how hot, cold, wet, or windy it might be!

Date:

Astronomy

Aug. 01, 2012 Rise Set
Actual Time 5:35 AM EDT 8:07 PM EDT
Civil Twilight 5:02 AM EDT 8:40 PM EDT
Nautical Twilight 4:22 AM EDT 9:20 PM EDT
Astronomical Twilight 3:35 AM EDT 10:06 PM EDT
Moon 7:33 PM EDT 5:02 AM EDT
Length of Visible Light 15h 37m
Length of Day
14h 32m
Full, 100% of the Moon is Illuminated
Aug 1
Full
Aug 1
Full
Aug 9
Last Quarter
Aug 17
New
Aug 24
First Quarter

Hourly Weather History & Observations

Time (EDT) Temp. Heat Index Dew Point Humidity Pressure Visibility Wind Dir Wind Speed Gust Speed Precip Events Conditions
12:15 AM 66.2 °F - 62.6 °F 88% 29.93 in 10.0 mi NE 8.1 mph - N/A   Overcast
12:35 AM 66.2 °F - 60.8 °F 83% 29.92 in 10.0 mi NE 4.6 mph - N/A   Overcast
1:35 AM 66.2 °F - 60.8 °F 83% 29.91 in 10.0 mi ENE 9.2 mph - N/A   Overcast
1:55 AM 66.2 °F - 60.8 °F 83% 29.91 in 10.0 mi ENE 5.8 mph - N/A   Overcast
2:15 AM 66.2 °F - 60.8 °F 83% 29.90 in 10.0 mi Calm Calm - N/A   Overcast
2:35 AM 66.2 °F - 60.8 °F 83% 29.90 in 10.0 mi NE 5.8 mph - N/A   Overcast
2:55 AM 66.2 °F - 60.8 °F 83% 29.89 in 10.0 mi East 4.6 mph - N/A   Overcast
3:15 AM 66.2 °F - 60.8 °F 83% 29.89 in 10.0 mi Calm Calm - N/A   Overcast
3:35 AM 66.2 °F - 60.8 °F 83% 29.89 in 10.0 mi Calm Calm - N/A   Overcast
3:55 AM 66.2 °F - 60.8 °F 83% 29.88 in 10.0 mi Calm Calm - N/A   Overcast
4:15 AM 66.2 °F - 60.8 °F 83% 29.88 in 10.0 mi Calm Calm - N/A   Overcast
4:35 AM 66.2 °F - 60.8 °F 83% 29.88 in 10.0 mi Calm Calm - N/A   Overcast
5:15 AM 66.2 °F - 60.8 °F 83% 29.89 in 10.0 mi Calm Calm - N/A   Overcast
5:35 AM 68.0 °F - 60.8 °F 78% 29.89 in 10.0 mi Calm Calm - N/A   Overcast
5:55 AM 66.2 °F - 60.8 °F 83% 29.89 in 10.0 mi Calm Calm - N/A   Overcast
6:15 AM 66.2 °F - 60.8 °F 83% 29.89 in 10.0 mi Calm Calm - N/A   Overcast
6:35 AM 66.2 °F - 62.6 °F 88% 29.89 in 10.0 mi Calm Calm - N/A   Overcast
6:55 AM 66.2 °F - 60.8 °F 83% 29.89 in 10.0 mi Calm Calm - N/A   Overcast
7:15 AM 68.0 °F - 62.6 °F 83% 29.89 in 10.0 mi Calm Calm - N/A   Overcast
7:35 AM 71.6 °F - 62.6 °F 73% 29.89 in 10.0 mi Calm Calm - N/A   Scattered Clouds
8:15 AM 69.8 °F - 60.8 °F 73% 29.90 in 10.0 mi SW 5.8 mph - N/A   Mostly Cloudy
8:55 AM 71.6 °F - 62.6 °F 73% 29.90 in 10.0 mi WSW 9.2 mph - N/A   Overcast
9:15 AM 71.6 °F - 60.8 °F 69% 29.90 in 10.0 mi SW 9.2 mph - N/A   Overcast
9:35 AM 71.6 °F - 60.8 °F 69% 29.90 in 10.0 mi SW 11.5 mph - N/A   Overcast
9:55 AM 71.6 °F - 62.6 °F 73% 29.89 in 10.0 mi WSW 6.9 mph - N/A   Mostly Cloudy
10:15 AM 73.4 °F - 62.6 °F 69% 29.89 in 10.0 mi SW 8.1 mph - N/A   Mostly Cloudy
10:35 AM 73.4 °F - 62.6 °F 69% 29.88 in 10.0 mi WSW 5.8 mph - N/A   Mostly Cloudy
11:15 AM 73.4 °F - 62.6 °F 69% 29.88 in 10.0 mi West 8.1 mph - N/A   Mostly Cloudy
12:15 PM 75.2 °F - 62.6 °F 65% 29.87 in 10.0 mi West 9.2 mph - N/A   Mostly Cloudy
12:35 PM 75.2 °F - 64.4 °F 69% 29.86 in 10.0 mi SSW 9.2 mph - N/A   Overcast
12:55 PM 75.2 °F - 64.4 °F 69% 29.86 in 10.0 mi WSW 6.9 mph - N/A   Overcast
1:15 PM 75.2 °F - 64.4 °F 69% 29.86 in 10.0 mi West 5.8 mph - N/A   Overcast
1:35 PM 75.2 °F - 64.4 °F 69% 29.86 in 10.0 mi SW 6.9 mph - N/A   Overcast
1:55 PM 75.2 °F - 64.4 °F 69% 29.85 in 10.0 mi WSW 6.9 mph - N/A   Overcast
2:15 PM 78.8 °F - 64.4 °F 61% 29.84 in 10.0 mi SSE 8.1 mph - N/A   Mostly Cloudy
3:15 PM 78.8 °F - 64.4 °F 61% 29.83 in 10.0 mi SSW 5.8 mph - N/A   Overcast
3:35 PM 80.6 °F 82.3 °F 64.4 °F 58% 29.83 in 10.0 mi SW 9.2 mph - N/A   Mostly Cloudy
3:55 PM 80.6 °F 82.3 °F 64.4 °F 58% 29.82 in 10.0 mi WSW 9.2 mph - N/A   Mostly Cloudy
4:15 PM 80.6 °F 81.8 °F 62.6 °F 54% 29.82 in 10.0 mi WSW 6.9 mph - N/A   Partly Cloudy
4:35 PM 80.6 °F 82.3 °F 64.4 °F 58% 29.82 in 10.0 mi West 10.4 mph - N/A   Partly Cloudy
4:55 PM 80.6 °F 81.8 °F 62.6 °F 54% 29.82 in 10.0 mi SW 6.9 mph - N/A   Partly Cloudy
5:15 PM 80.6 °F 81.8 °F 62.6 °F 54% 29.81 in 10.0 mi SSW 6.9 mph 16.1 mph N/A   Mostly Cloudy
5:35 PM 80.6 °F 81.8 °F 62.6 °F 54% 29.81 in 10.0 mi South 5.8 mph - N/A   Overcast
5:55 PM 80.6 °F 82.3 °F 64.4 °F 58% 29.81 in 10.0 mi South 5.8 mph - N/A   Mostly Cloudy
6:15 PM 78.8 °F - 64.4 °F 61% 29.81 in 10.0 mi South 5.8 mph - N/A   Partly Cloudy
6:35 PM 78.8 °F - 64.4 °F 61% 29.82 in 10.0 mi South 6.9 mph - N/A   Clear
6:55 PM 78.8 °F - 64.4 °F 61% 29.82 in 10.0 mi SSW 5.8 mph - N/A   Clear
7:15 PM 77.0 °F - 64.4 °F 65% 29.82 in 10.0 mi South 8.1 mph - N/A   Clear
7:35 PM 77.0 °F - 64.4 °F 65% 29.83 in 10.0 mi South 8.1 mph - N/A   Clear
8:35 PM 73.4 °F - 64.4 °F 73% 29.84 in 10.0 mi South 6.9 mph - N/A   Clear
8:55 PM 73.4 °F - 66.2 °F 78% 29.84 in 10.0 mi South 6.9 mph - N/A   Partly Cloudy
9:15 PM 73.4 °F - 66.2 °F 78% 29.85 in 10.0 mi SW 5.8 mph - N/A   Scattered Clouds
9:35 PM 73.4 °F - 66.2 °F 78% 29.85 in 10.0 mi SW 3.5 mph - N/A   Scattered Clouds
9:55 PM 73.4 °F - 66.2 °F 78% 29.84 in 10.0 mi Calm Calm - N/A   Partly Cloudy
10:55 PM 73.4 °F - 66.2 °F 78% 29.84 in 10.0 mi NNW 4.6 mph - N/A   Partly Cloudy
11:15 PM 71.6 °F - 66.2 °F 83% 29.84 in 10.0 mi Calm Calm - N/A   Scattered Clouds
11:35 PM 71.6 °F - 66.2 °F 83% 29.84 in 10.0 mi SW 3.5 mph - N/A   Partly Cloudy
11:55 PM 71.6 °F - 66.2 °F 83% 29.84 in 10.0 mi Calm Calm - N/A   Clear